This is the latest recevied weather packets stored in our database for station/object KC8YYF. If no packets are shown the sender has not sent any weather packets the latest 10 day(s).
| Time | Temp. | Humidity | Pressure | Rain* | Wind** | Luminosity | Snow |
|---|---|---|---|---|---|---|---|
| 1777318819 | 23.89° C | 44% | 1017.6 hPa | 0 mm | - | 119 W/m² | - |
| 1777318515 | 23.89° C | 46% | 1017.6 hPa | 0 mm | - | 105 W/m² | - |
| 1777318212 | 23.89° C | 45% | 1017.6 hPa | 0 mm | - | 113 W/m² | - |
| 1777317909 | 23.89° C | 46% | 1017.6 hPa | 0 mm | - | 97 W/m² | - |
| 1777317606 | 23.89° C | 49% | 1017.9 hPa | 0 mm | - | 99 W/m² | - |
| 1777317303 | 23.89° C | 46% | 1018.1 hPa | 0 mm | - | 105 W/m² | - |
| 1777316997 | 23.89° C | 47% | 1018 hPa | 0 mm | - | 148 W/m² | - |
| 1777316695 | 23.33° C | 48% | 1018.1 hPa | 0 mm | - | 124 W/m² | - |
| 1777316391 | 22.78° C | 49% | 1018.2 hPa | 0 mm | - | 121 W/m² | - |
| 1777316089 | 22.78° C | 48% | 1018.5 hPa | 0 mm | - | 122 W/m² | - |
| 1777315787 | 23.89° C | 49% | 1018.3 hPa | 0 mm | - | 114 W/m² | - |
| 1777315485 | 23.33° C | 46% | 1018.4 hPa | 0 mm | - | 384 W/m² | - |
| 1777315184 | 23.89° C | 49% | 1018.6 hPa | 0 mm | - | 494 W/m² | - |
| 1777314879 | 23.33° C | 49% | 1018.5 hPa | 0 mm | - | 542 W/m² | - |
| 1777314575 | 23.33° C | 48% | 1018.9 hPa | 0 mm | - | 659 W/m² | - |
| 1777314272 | 23.33° C | 49% | 1018.9 hPa | 0 mm | - | 628 W/m² | - |
| 1777313970 | 23.33° C | 51% | 1019.3 hPa | 0 mm | - | 631 W/m² | - |
| 1777313667 | 23.89° C | 52% | 1019.2 hPa | 0 mm | - | 667 W/m² | - |
| 1777313365 | 23.33° C | 51% | 1019.3 hPa | 0 mm | - | 702 W/m² | - |
| 1777313061 | 23.33° C | 50% | 1019.3 hPa | 0 mm | - | 694 W/m² | - |
| 1777312757 | 22.78° C | 50% | 1019.5 hPa | 0 mm | - | 563 W/m² | - |
| 1777312454 | 22.78° C | 55% | 1019.2 hPa | 0 mm | - | 446 W/m² | - |
| 1777312151 | 22.22° C | 55% | 1019.2 hPa | 0 mm | - | 535 W/m² | - |
| 1777311849 | 22.78° C | 53% | 1019.5 hPa | 0 mm | - | 566 W/m² | - |
| 1777311545 | 22.78° C | 56% | 1019.6 hPa | 0 mm | - | 610 W/m² | - |
* Rain latest hour (hover to see other rain measurements)
** Current wind speed in m/s (hover to see current wind gust speed)